[Iaude] MPEC G07: 2024 FY3 [a=1.70,e=0.48,i=5.4,H=23.6]

mpec at cfa.harvard.edu mpec at cfa.harvard.edu
Tue Apr 2 11:26:26 EDT 2024


M.P.E.C. 2024-G07                                 Issued 2024 April 2, 15:24 UT

     The Minor Planet Electronic Circulars contain information on unusual
         minor planets, routine data on comets and natural satellites,
         and occasional editorial announcements.  They are published
    on behalf of Division F of the International Astronomical Union by the
          Minor Planet Center, Smithsonian Astrophysical Observatory,
                          Cambridge, MA 02138, U.S.A.
			  
             Prepared using the Tamkin Foundation Computer Network

                              MPC at CFA.HARVARD.EDU
            URL https://www.minorplanetcenter.net/    ISSN 1523-6714

                                    2024 FY3                                    


Observations:
     K24F03Y  C2024 03 18.38930 11 41 25.31 -03 45 23.4          22.2 GVEG007V00
     K24F03Y  C2024 03 18.39491 11 41 24.57 -03 45 27.1          22.5 GVEG007V00
     K24F03Y  C2024 03 18.40051 11 41 23.79 -03 45 30.1          21.6 GVEG007V00
     K24F03Y* C2024 03 31.42739511 04 32.694-06 33 27.14         21.71wXEG007F52
     K24F03Y  C2024 03 31.44117711 04 29.515-06 33 40.56         21.23wXEG007F52
     K24F03Y  C2024 03 31.45495511 04 26.331-06 33 54.07         21.67wXEG007F52
     K24F03Y |C2024 04 01.16690011 01 51.390-06 45 09.70         21.3 GVEG007807
     K24F03Y |C2024 04 01.17578011 01 49.260-06 45 18.10         21.4 GVEG007807
     K24F03Y |C2024 04 01.18452011 01 47.220-06 45 26.70         21.2 GVEG007807
     K24F03Y |C2024 04 02.15848010 58 07.880-07 02 11.00         21.3 GVEG007807
     K24F03Y |C2024 04 02.16515010 58 06.270-07 02 17.90         21.2 GVEG007807
     K24F03Y |C2024 04 02.17167010 58 04.690-07 02 24.60         21.2 GVEG007807

Observer details:
807 Cerro Tololo Observatory, La Serena.  Observers T. Linder, R. Holmes.
    0.61-m f/6.8 Ritchey-Chretien + CCD.
F52 Pan-STARRS 2, Haleakala.  Observers J. Herman, T. Lowe, P. Minguez, A.
    Schultz, I. Smith.  Measurers K. Chambers, T. de Boer, J. Fairlamb, H.
    Gao, M. Huber, C.-C. Lin, E. Magnier, Y. Ramanjooloo, R. Wainscoat, R.
    Weryk.  1.8-m Ritchey-Chretien + CCD.
V00 Kitt Peak-Bok.  Observers V. F. Carvajal, H. Groeller.  Measurers B. Gray,
    D. Rankin, F. C. Shelly.  2.25-m reflector + mosaic CCD.

Orbital elements:
2024 FY3                                                 Earth MOID = 0.0408 AU
Epoch 2024 Mar. 31.0 TT = JDT 2460400.5                 Veres                   
M 329.25845              (2000.0)            P               Q                  
n   0.44404245     Peri.  281.71710     -0.06061597     +0.99785037             
a   1.7015827      Node   344.74134     -0.87497936     -0.06512694             
e   0.4792841      Incl.    5.43051     -0.48035073     -0.00728830             
P   2.22           H   23.61          G   0.15           U   9                  
Residuals in seconds of arc
240318 V00  0.2-  0.1+    240331 F52  0.1+  0.2+    240401 807  0.0   0.4+
240318 V00  0.2+  0.2-    240331 F52  0.2-  0.0     240402 807  0.1-  0.1-
240318 V00  0.0   0.1+    240401 807  0.2+  0.3-    240402 807  0.2+  0.1-
240331 F52  0.1+  0.2+    240401 807  0.3-  0.3+

Ephemeris:
2024 FY3                 a,e,i = 1.70, 0.48, 5                   q = 0.8860
Date    TT    R. A. (2000) Decl.     Delta      r    Elong.  Phase     V
2024 03 03    12 03 53.5 -01 37 03   0.4315  1.4063   161.0    13.3    23.3
...
2024 03 18    11 42 15.6 -03 41 12   0.3043  1.2986   174.9     3.9    22.0
...
2024 03 26    11 22 14.5 -05 13 08   0.2503  1.2412   165.2    11.8    21.8
...
2024 04 01    11 02 29.0 -06 42 37   0.2158  1.1985   155.1    20.5    21.7
2024 04 02    10 58 44.8 -06 59 40   0.2105  1.1914   153.3    22.1    21.7
2024 04 03    10 54 52.7 -07 17 25   0.2054  1.1844   151.5    23.8    21.7
...
2024 04 09    10 28 39.0 -09 19 48   0.1774  1.1427   139.8    34.5    21.6
...
2024 04 17    09 44 18.7 -12 52 21   0.1469  1.0891   122.2    51.3    21.5
...
2024 05 02    07 36 54.1 -21 12 42   0.1118  0.9985    82.1    91.6    22.1

M. P. C. Staff               (C) Copyright 2024 MPC           M.P.E.C. 2024-G07





More information about the Iaude mailing list